owner,sensor,date,latitude,longitude,vertical_datum,sea_water_practical_salinity,qcFlag 
DISL,ioos:station:DISL:CATA:1,2013-06-01T00:00:00Z,30.3085,-88.1395,2.398,12.14,1111122 
DISL,ioos:station:DISL:CATA:1,2013-06-01T00:30:00Z,30.3085,-88.1395,2.389,12.05,1111122 
DISL,ioos:station:DISL:CATA:1,2013-06-01T01:00:00Z,30.3085,-88.1395,2.389,12.71,1111122 
DISL,ioos:station:DISL:CATA:1,2013-06-01T01:30:00Z,30.3085,-88.1395,2.378,12.94,1111122 
DISL,ioos:station:DISL:CATA:1,2013-06-01T02:00:00Z,30.3085,-88.1395,2.363,13.26,1111122 
DISL,ioos:station:DISL:CATA:1,2013-06-01T02:30:00Z,30.3085,-88.1395,2.355,13.06,1111122 
DISL,ioos:station:DISL:CATA:1,2013-06-01T03:00:00Z,30.3085,-88.1395,2.354,12.7,1111122 
DISL,ioos:station:DISL:CATA:1,2013-06-01T03:30:00Z,30.3085,-88.1395,2.34,12.64,1111122 
DISL,ioos:station:DISL:CATA:1,2013-06-01T04:00:00Z,30.3085,-88.1395,2.34,12.6,1111122 
DISL,ioos:station:DISL:CATA:1,2013-06-01T04:30:00Z,30.3085,-88.1395,2.332,12.19,1111122 
DISL,ioos:station:DISL:CATA:1,2013-06-01T05:00:00Z,30.3085,-88.1395,2.331,11.69,1111122 
DISL,ioos:station:DISL:CATA:1,2013-06-01T05:30:00Z,30.3085,-88.1395,2.331,11.34,1111122 
DISL,ioos:station:DISL:CATA:1,2013-06-01T06:00:00Z,30.3085,-88.1395,2.348,11.36,1111122 
DISL,ioos:station:DISL:CATA:1,2013-06-01T06:30:00Z,30.3085,-88.1395,2.345,11.2,1111122 
DISL,ioos:station:DISL:CATA:1,2013-06-01T07:00:00Z,30.3085,-88.1395,2.339,10.82,1111122 
DISL,ioos:station:DISL:CATA:1,2013-06-01T07:30:00Z,30.3085,-88.1395,2.37,10.32,1111122 
DISL,ioos:station:DISL:CATA:1,2013-06-01T08:00:00Z,30.3085,-88.1395,2.389,10.04,1111122 
DISL,ioos:station:DISL:CATA:1,2013-06-01T08:30:00Z,30.3085,-88.1395,2.383,10.61,1111122 
DISL,ioos:station:DISL:CATA:1,2013-06-01T09:00:00Z,30.3085,-88.1395,2.385,10.57,1111122 
DISL,ioos:station:DISL:CATA:1,2013-06-01T09:30:00Z,30.3085,-88.1395,2.389,10.97,1111122 
DISL,ioos:station:DISL:CATA:1,2013-06-01T10:00:00Z,30.3085,-88.1395,2.394,11.21,1111122 
DISL,ioos:station:DISL:CATA:1,2013-06-01T10:30:00Z,30.3085,-88.1395,2.394,10.61,1111122 
DISL,ioos:station:DISL:CATA:1,2013-06-01T11:00:00Z,30.3085,-88.1395,2.388,10.79,1111122 
DISL,ioos:station:DISL:CATA:1,2013-06-01T11:30:00Z,30.3085,-88.1395,2.397,10.83,1111122 
DISL,ioos:station:DISL:CATA:1,2013-06-01T12:00:00Z,30.3085,-88.1395,2.404,10.12,1111122 
DISL,ioos:station:DISL:CATA:1,2013-06-01T12:30:00Z,30.3085,-88.1395,2.409,10.17,1111122 
DISL,ioos:station:DISL:CATA:1,2013-06-01T13:00:00Z,30.3085,-88.1395,2.416,10.01,1111122 
DISL,ioos:station:DISL:CATA:1,2013-06-01T13:30:00Z,30.3085,-88.1395,2.433,9.21,1111122 
DISL,ioos:station:DISL:CATA:1,2013-06-01T14:00:00Z,30.3085,-88.1395,2.441,9.57,1111122 
DISL,ioos:station:DISL:CATA:1,2013-06-01T14:30:00Z,30.3085,-88.1395,2.441,9.7,1111122 
DISL,ioos:station:DISL:CATA:1,2013-06-01T15:00:00Z,30.3085,-88.1395,2.436,9.69,1111122 
DISL,ioos:station:DISL:CATA:1,2013-06-01T15:30:00Z,30.3085,-88.1395,2.432,9.48,1111122 
DISL,ioos:station:DISL:CATA:1,2013-06-01T16:00:00Z,30.3085,-88.1395,2.416,9.11,1111122 
DISL,ioos:station:DISL:CATA:1,2013-06-01T16:30:00Z,30.3085,-88.1395,2.411,8.48,1111122 
DISL,ioos:station:DISL:CATA:1,2013-06-01T17:00:00Z,30.3085,-88.1395,2.393,8.53,1111122 
DISL,ioos:station:DISL:CATA:1,2013-06-01T17:30:00Z,30.3085,-88.1395,2.378,8.48,1111122 
DISL,ioos:station:DISL:CATA:1,2013-06-01T18:00:00Z,30.3085,-88.1395,2.36,8.69,1111122 
DISL,ioos:station:DISL:CATA:1,2013-06-01T18:30:00Z,30.3085,-88.1395,2.355,8.6,1111122 
DISL,ioos:station:DISL:CATA:1,2013-06-01T19:00:00Z,30.3085,-88.1395,2.364,8.58,1111122 
DISL,ioos:station:DISL:CATA:1,2013-06-01T19:30:00Z,30.3085,-88.1395,2.348,8.59,1111122 
DISL,ioos:station:DISL:CATA:1,2013-06-01T20:00:00Z,30.3085,-88.1395,2.356,8.65,1111122 
DISL,ioos:station:DISL:CATA:1,2013-06-01T20:30:00Z,30.3085,-88.1395,2.353,8.63,1111122 
DISL,ioos:station:DISL:CATA:1,2013-06-01T21:00:00Z,30.3085,-88.1395,2.352,8.7,1111122 
DISL,ioos:station:DISL:CATA:1,2013-06-01T21:30:00Z,30.3085,-88.1395,2.351,9.17,1111122 
DISL,ioos:station:DISL:CATA:1,2013-06-01T22:00:00Z,30.3085,-88.1395,2.34,8.63,1111122 
DISL,ioos:station:DISL:CATA:1,2013-06-01T22:30:00Z,30.3085,-88.1395,2.319,9.14,1111122 
DISL,ioos:station:DISL:CATA:1,2013-06-01T23:00:00Z,30.3085,-88.1395,2.3,9.64,1111122 
DISL,ioos:station:DISL:CATA:1,2013-06-01T23:30:00Z,30.3085,-88.1395,2.299,9.89,1111122 
DISL,ioos:station:DISL:CATA:1,2013-06-02T00:00:00Z,30.3085,-88.1395,2.303,9.11,1111122 
DISL,ioos:station:DISL:CATA:1,2013-06-02T00:30:00Z,30.3085,-88.1395,2.31,8.88,1111122 
DISL,ioos:station:DISL:CATA:1,2013-06-02T01:00:00Z,30.3085,-88.1395,2.319,8.79,1111122 
DISL,ioos:station:DISL:CATA:1,2013-06-02T01:30:00Z,30.3085,-88.1395,2.312,8.82,1111122 
DISL,ioos:station:DISL:CATA:1,2013-06-02T02:00:00Z,30.3085,-88.1395,2.312,8.72,1111122 
DISL,ioos:station:DISL:CATA:1,2013-06-02T02:30:00Z,30.3085,-88.1395,2.307,8.49,1111122 
DISL,ioos:station:DISL:CATA:1,2013-06-02T03:00:00Z,30.3085,-88.1395,2.312,8.51,1111122 
DISL,ioos:station:DISL:CATA:1,2013-06-02T03:30:00Z,30.3085,-88.1395,2.305,8.69,1111122 
DISL,ioos:station:DISL:CATA:1,2013-06-02T04:00:00Z,30.3085,-88.1395,2.3,8.66,1111122 
DISL,ioos:station:DISL:CATA:1,2013-06-02T04:30:00Z,30.3085,-88.1395,2.306,8.4,1111122 
DISL,ioos:station:DISL:CATA:1,2013-06-02T05:00:00Z,30.3085,-88.1395,2.292,8.12,1111122 
DISL,ioos:station:DISL:CATA:1,2013-06-02T05:30:00Z,30.3085,-88.1395,2.289,8.0,1111122 
DISL,ioos:station:DISL:CATA:1,2013-06-02T06:00:00Z,30.3085,-88.1395,2.296,7.98,1111122 
DISL,ioos:station:DISL:CATA:1,2013-06-02T06:30:00Z,30.3085,-88.1395,2.293,7.96,1111122 
DISL,ioos:station:DISL:CATA:1,2013-06-02T07:00:00Z,30.3085,-88.1395,2.294,7.8,1111122 
DISL,ioos:station:DISL:CATA:1,2013-06-02T07:30:00Z,30.3085,-88.1395,2.307,7.66,1111122 
DISL,ioos:station:DISL:CATA:1,2013-06-02T08:00:00Z,30.3085,-88.1395,2.319,7.55,1111122 
DISL,ioos:station:DISL:CATA:1,2013-06-02T08:30:00Z,30.3085,-88.1395,2.327,7.49,1111122 
DISL,ioos:station:DISL:CATA:1,2013-06-02T09:00:00Z,30.3085,-88.1395,2.334,7.58,1111122 
DISL,ioos:station:DISL:CATA:1,2013-06-02T09:30:00Z,30.3085,-88.1395,2.345,7.85,1111122 
DISL,ioos:station:DISL:CATA:1,2013-06-02T10:00:00Z,30.3085,-88.1395,2.35,7.55,1111122 
DISL,ioos:station:DISL:CATA:1,2013-06-02T10:30:00Z,30.3085,-88.1395,2.368,7.66,1111122 
DISL,ioos:station:DISL:CATA:1,2013-06-02T11:00:00Z,30.3085,-88.1395,2.373,8.01,1111122 
DISL,ioos:station:DISL:CATA:1,2013-06-02T11:30:00Z,30.3085,-88.1395,2.367,8.07,1111122 
DISL,ioos:station:DISL:CATA:1,2013-06-02T12:00:00Z,30.3085,-88.1395,2.349,8.06,1111122 
DISL,ioos:station:DISL:CATA:1,2013-06-02T12:30:00Z,30.3085,-88.1395,2.353,8.56,1111122 
DISL,ioos:station:DISL:CATA:1,2013-06-02T13:00:00Z,30.3085,-88.1395,2.335,8.46,1111122 
DISL,ioos:station:DISL:CATA:1,2013-06-02T13:30:00Z,30.3085,-88.1395,2.337,8.54,1111122 
DISL,ioos:station:DISL:CATA:1,2013-06-02T14:00:00Z,30.3085,-88.1395,2.342,8.33,1111122 
DISL,ioos:station:DISL:CATA:1,2013-06-02T14:30:00Z,30.3085,-88.1395,2.299,7.56,1111122 
DISL,ioos:station:DISL:CATA:1,2013-06-02T15:00:00Z,30.3085,-88.1395,2.274,7.57,1111122 
DISL,ioos:station:DISL:CATA:1,2013-06-02T15:30:00Z,30.3085,-88.1395,2.247,7.62,1111122 
DISL,ioos:station:DISL:CATA:1,2013-06-02T16:00:00Z,30.3085,-88.1395,2.208,7.52,1111122 
DISL,ioos:station:DISL:CATA:1,2013-06-02T16:30:00Z,30.3085,-88.1395,2.17,7.23,1111122 
DISL,ioos:station:DISL:CATA:1,2013-06-02T17:00:00Z,30.3085,-88.1395,2.175,7.19,1111122 
DISL,ioos:station:DISL:CATA:1,2013-06-02T17:30:00Z,30.3085,-88.1395,2.178,6.89,1111122 
DISL,ioos:station:DISL:CATA:1,2013-06-02T18:00:00Z,30.3085,-88.1395,2.195,7.12,1111122 
DISL,ioos:station:DISL:CATA:1,2013-06-02T18:30:00Z,30.3085,-88.1395,2.204,6.9,1111122 
DISL,ioos:station:DISL:CATA:1,2013-06-02T19:00:00Z,30.3085,-88.1395,2.223,7.17,1111122 
DISL,ioos:station:DISL:CATA:1,2013-06-02T19:30:00Z,30.3085,-88.1395,2.227,7.23,1111122 
DISL,ioos:station:DISL:CATA:1,2013-06-02T20:00:00Z,30.3085,-88.1395,2.223,7.09,1111122 
DISL,ioos:station:DISL:CATA:1,2013-06-02T20:30:00Z,30.3085,-88.1395,2.227,7.2,1111122 
DISL,ioos:station:DISL:CATA:1,2013-06-02T21:00:00Z,30.3085,-88.1395,2.21,6.74,1111122 
DISL,ioos:station:DISL:CATA:1,2013-06-02T21:30:00Z,30.3085,-88.1395,2.208,6.79,1111122 
DISL,ioos:station:DISL:CATA:1,2013-06-02T22:00:00Z,30.3085,-88.1395,2.194,7.14,1111122 
DISL,ioos:station:DISL:CATA:1,2013-06-02T22:30:00Z,30.3085,-88.1395,2.186,7.11,1111122 
DISL,ioos:station:DISL:CATA:1,2013-06-02T23:00:00Z,30.3085,-88.1395,2.215,6.99,1111122 
DISL,ioos:station:DISL:CATA:1,2013-06-02T23:30:00Z,30.3085,-88.1395,2.219,6.98,1111122 
DISL,ioos:station:DISL:CATA:1,2013-06-03T00:00:00Z,30.3085,-88.1395,2.225,7.08,1111122 
DISL,ioos:station:DISL:CATA:1,2013-06-03T00:30:00Z,30.3085,-88.1395,2.23,7.23,1111122 
DISL,ioos:station:DISL:CATA:1,2013-06-03T01:00:00Z,30.3085,-88.1395,2.251,7.67,1111122 
DISL,ioos:station:DISL:CATA:1,2013-06-03T01:30:00Z,30.3085,-88.1395,2.273,7.8,1111122 
DISL,ioos:station:DISL:CATA:1,2013-06-03T02:00:00Z,30.3085,-88.1395,2.27,7.85,1111122 
DISL,ioos:station:DISL:CATA:1,2013-06-03T02:30:00Z,30.3085,-88.1395,2.278,7.8,1111122 
DISL,ioos:station:DISL:CATA:1,2013-06-03T03:00:00Z,30.3085,-88.1395,2.299,7.95,1111122 
DISL,ioos:station:DISL:CATA:1,2013-06-03T03:30:00Z,30.3085,-88.1395,2.346,7.44,1111122 
DISL,ioos:station:DISL:CATA:1,2013-06-03T04:00:00Z,30.3085,-88.1395,2.336,7.3,1111122 
DISL,ioos:station:DISL:CATA:1,2013-06-03T04:30:00Z,30.3085,-88.1395,2.293,7.35,1111122 
DISL,ioos:station:DISL:CATA:1,2013-06-03T05:00:00Z,30.3085,-88.1395,2.244,7.32,1111122 
DISL,ioos:station:DISL:CATA:1,2013-06-03T05:30:00Z,30.3085,-88.1395,2.27,7.58,1111122 
DISL,ioos:station:DISL:CATA:1,2013-06-03T06:00:00Z,30.3085,-88.1395,2.273,7.62,1111122 
DISL,ioos:station:DISL:CATA:1,2013-06-03T06:30:00Z,30.3085,-88.1395,2.229,7.88,1111122 
DISL,ioos:station:DISL:CATA:1,2013-06-03T07:00:00Z,30.3085,-88.1395,2.216,8.02,1111122 
DISL,ioos:station:DISL:CATA:1,2013-06-03T07:30:00Z,30.3085,-88.1395,2.253,8.0,1111122 
DISL,ioos:station:DISL:CATA:1,2013-06-03T08:00:00Z,30.3085,-88.1395,2.28,7.79,1111122 
DISL,ioos:station:DISL:CATA:1,2013-06-03T08:30:00Z,30.3085,-88.1395,2.304,8.01,1111122 
DISL,ioos:station:DISL:CATA:1,2013-06-03T09:00:00Z,30.3085,-88.1395,2.339,8.23,1111122 
DISL,ioos:station:DISL:CATA:1,2013-06-03T09:30:00Z,30.3085,-88.1395,2.364,8.03,1111122 
DISL,ioos:station:DISL:CATA:1,2013-06-03T10:00:00Z,30.3085,-88.1395,2.388,7.72,1111122 
DISL,ioos:station:DISL:CATA:1,2013-06-03T10:30:00Z,30.3085,-88.1395,2.386,7.76,1111122 
DISL,ioos:station:DISL:CATA:1,2013-06-03T11:00:00Z,30.3085,-88.1395,2.39,7.8,1111122 
DISL,ioos:station:DISL:CATA:1,2013-06-03T11:30:00Z,30.3085,-88.1395,2.405,7.88,1111122 
DISL,ioos:station:DISL:CATA:1,2013-06-03T12:00:00Z,30.3085,-88.1395,2.404,8.19,1111122 
DISL,ioos:station:DISL:CATA:1,2013-06-03T12:30:00Z,30.3085,-88.1395,2.39,8.39,1111122 
DISL,ioos:station:DISL:CATA:1,2013-06-03T13:00:00Z,30.3085,-88.1395,2.386,8.42,1111122 
DISL,ioos:station:DISL:CATA:1,2013-06-03T13:30:00Z,30.3085,-88.1395,2.399,8.51,1111122 
DISL,ioos:station:DISL:CATA:1,2013-06-03T14:00:00Z,30.3085,-88.1395,2.388,8.63,1111122 
DISL,ioos:station:DISL:CATA:1,2013-06-03T14:30:00Z,30.3085,-88.1395,2.394,8.85,1111122 
DISL,ioos:station:DISL:CATA:1,2013-06-03T15:00:00Z,30.3085,-88.1395,2.386,8.85,1111122 
DISL,ioos:station:DISL:CATA:1,2013-06-03T15:30:00Z,30.3085,-88.1395,2.377,8.69,1111122 
DISL,ioos:station:DISL:CATA:1,2013-06-03T16:00:00Z,30.3085,-88.1395,2.341,8.56,1111122 
DISL,ioos:station:DISL:CATA:1,2013-06-03T16:30:00Z,30.3085,-88.1395,2.309,8.41,1111122 
DISL,ioos:station:DISL:CATA:1,2013-06-03T17:00:00Z,30.3085,-88.1395,2.279,9.35,1111122 
DISL,ioos:station:DISL:CATA:1,2013-06-03T17:30:00Z,30.3085,-88.1395,2.233,9.78,1111122 
DISL,ioos:station:DISL:CATA:1,2013-06-03T18:00:00Z,30.3085,-88.1395,2.199,8.85,1111122 
DISL,ioos:station:DISL:CATA:1,2013-06-03T18:30:00Z,30.3085,-88.1395,2.161,8.11,1111122 
DISL,ioos:station:DISL:CATA:1,2013-06-03T19:00:00Z,30.3085,-88.1395,2.136,8.09,1111122 
DISL,ioos:station:DISL:CATA:1,2013-06-03T19:30:00Z,30.3085,-88.1395,2.121,7.88,1111122 
DISL,ioos:station:DISL:CATA:1,2013-06-03T20:00:00Z,30.3085,-88.1395,2.103,7.68,1111122 
DISL,ioos:station:DISL:CATA:1,2013-06-03T20:30:00Z,30.3085,-88.1395,2.096,7.48,1111122 
DISL,ioos:station:DISL:CATA:1,2013-06-03T21:00:00Z,30.3085,-88.1395,2.084,7.43,1111122 
DISL,ioos:station:DISL:CATA:1,2013-06-03T21:30:00Z,30.3085,-88.1395,2.07,7.41,1111122 
DISL,ioos:station:DISL:CATA:1,2013-06-03T22:00:00Z,30.3085,-88.1395,2.06,7.42,1111122 
DISL,ioos:station:DISL:CATA:1,2013-06-03T22:30:00Z,30.3085,-88.1395,2.062,7.35,1111122 
DISL,ioos:station:DISL:CATA:1,2013-06-03T23:00:00Z,30.3085,-88.1395,2.058,7.32,1111122 
DISL,ioos:station:DISL:CATA:1,2013-06-03T23:30:00Z,30.3085,-88.1395,2.07,7.26,1111122 
DISL,ioos:station:DISL:CATA:1,2013-06-04T00:00:00Z,30.3085,-88.1395,2.085,7.26,1111122 
DISL,ioos:station:DISL:CATA:1,2013-06-04T00:30:00Z,30.3085,-88.1395,2.094,7.28,1111122 
DISL,ioos:station:DISL:CATA:1,2013-06-04T01:00:00Z,30.3085,-88.1395,2.093,7.27,1111122 
DISL,ioos:station:DISL:CATA:1,2013-06-04T01:30:00Z,30.3085,-88.1395,2.103,7.27,1111122 
DISL,ioos:station:DISL:CATA:1,2013-06-04T02:00:00Z,30.3085,-88.1395,2.116,7.27,1111122 
DISL,ioos:station:DISL:CATA:1,2013-06-04T02:30:00Z,30.3085,-88.1395,2.134,7.33,1111122 
DISL,ioos:station:DISL:CATA:1,2013-06-04T03:00:00Z,30.3085,-88.1395,2.147,7.3,1111122 
DISL,ioos:station:DISL:CATA:1,2013-06-04T03:30:00Z,30.3085,-88.1395,2.158,7.4,1111122 
DISL,ioos:station:DISL:CATA:1,2013-06-04T04:00:00Z,30.3085,-88.1395,2.179,7.37,1111122 
DISL,ioos:station:DISL:CATA:1,2013-06-04T04:30:00Z,30.3085,-88.1395,2.202,7.3,1111122 
DISL,ioos:station:DISL:CATA:1,2013-06-04T05:00:00Z,30.3085,-88.1395,2.213,7.32,1111122 
DISL,ioos:station:DISL:CATA:1,2013-06-04T05:30:00Z,30.3085,-88.1395,2.226,7.39,1111122 
DISL,ioos:station:DISL:CATA:1,2013-06-04T06:00:00Z,30.3085,-88.1395,2.246,7.38,1111122 
DISL,ioos:station:DISL:CATA:1,2013-06-04T06:30:00Z,30.3085,-88.1395,2.271,7.29,1111122 
DISL,ioos:station:DISL:CATA:1,2013-06-04T07:00:00Z,30.3085,-88.1395,2.278,7.36,1111122 
DISL,ioos:station:DISL:CATA:1,2013-06-04T07:30:00Z,30.3085,-88.1395,2.306,7.4,1111122 
DISL,ioos:station:DISL:CATA:1,2013-06-04T08:00:00Z,30.3085,-88.1395,2.326,7.46,1111122 
DISL,ioos:station:DISL:CATA:1,2013-06-04T08:30:00Z,30.3085,-88.1395,2.35,7.6,1111122 
DISL,ioos:station:DISL:CATA:1,2013-06-04T09:00:00Z,30.3085,-88.1395,2.355,7.68,1111122 
DISL,ioos:station:DISL:CATA:1,2013-06-04T09:30:00Z,30.3085,-88.1395,2.379,7.78,1111122 
DISL,ioos:station:DISL:CATA:1,2013-06-04T10:00:00Z,30.3085,-88.1395,2.396,7.9,1111122 
DISL,ioos:station:DISL:CATA:1,2013-06-04T10:30:00Z,30.3085,-88.1395,2.41,7.97,1111122 
DISL,ioos:station:DISL:CATA:1,2013-06-04T11:00:00Z,30.3085,-88.1395,2.413,8.13,1111122 
DISL,ioos:station:DISL:CATA:1,2013-06-04T11:30:00Z,30.3085,-88.1395,2.423,8.2,1111122 
DISL,ioos:station:DISL:CATA:1,2013-06-04T12:00:00Z,30.3085,-88.1395,2.429,8.25,1111122 
DISL,ioos:station:DISL:CATA:1,2013-06-04T12:30:00Z,30.3085,-88.1395,2.43,8.81,1111122 
DISL,ioos:station:DISL:CATA:1,2013-06-04T13:00:00Z,30.3085,-88.1395,2.417,9.05,1111122 
DISL,ioos:station:DISL:CATA:1,2013-06-04T13:30:00Z,30.3085,-88.1395,2.406,9.26,1111122 
DISL,ioos:station:DISL:CATA:1,2013-06-04T14:00:00Z,30.3085,-88.1395,2.4,9.8,1111122 
DISL,ioos:station:DISL:CATA:1,2013-06-04T14:30:00Z,30.3085,-88.1395,2.385,11.1,1111122 
DISL,ioos:station:DISL:CATA:1,2013-06-04T15:00:00Z,30.3085,-88.1395,2.375,11.54,1111122 
DISL,ioos:station:DISL:CATA:1,2013-06-04T15:30:00Z,30.3085,-88.1395,2.363,10.1,1111122 
DISL,ioos:station:DISL:CATA:1,2013-06-04T16:00:00Z,30.3085,-88.1395,2.348,8.56,1111122 
DISL,ioos:station:DISL:CATA:1,2013-06-04T16:30:00Z,30.3085,-88.1395,2.331,7.46,1111122 
DISL,ioos:station:DISL:CATA:1,2013-06-04T17:00:00Z,30.3085,-88.1395,2.308,7.35,1111122 
DISL,ioos:station:DISL:CATA:1,2013-06-04T17:30:00Z,30.3085,-88.1395,2.283,7.23,1111122 
DISL,ioos:station:DISL:CATA:1,2013-06-04T18:00:00Z,30.3085,-88.1395,2.25,7.24,1111122 
DISL,ioos:station:DISL:CATA:1,2013-06-04T18:30:00Z,30.3085,-88.1395,2.212,7.25,1111122 
DISL,ioos:station:DISL:CATA:1,2013-06-04T19:00:00Z,30.3085,-88.1395,2.175,7.1,1111122 
DISL,ioos:station:DISL:CATA:1,2013-06-04T19:30:00Z,30.3085,-88.1395,2.147,7.08,1111122 
DISL,ioos:station:DISL:CATA:1,2013-06-04T20:00:00Z,30.3085,-88.1395,2.113,7.05,1111122 
DISL,ioos:station:DISL:CATA:1,2013-06-04T20:30:00Z,30.3085,-88.1395,2.082,7.05,1111122 
DISL,ioos:station:DISL:CATA:1,2013-06-04T21:00:00Z,30.3085,-88.1395,2.056,6.99,1111122 
DISL,ioos:station:DISL:CATA:1,2013-06-04T21:30:00Z,30.3085,-88.1395,2.038,7.0,1111122 
DISL,ioos:station:DISL:CATA:1,2013-06-04T22:00:00Z,30.3085,-88.1395,2.024,6.97,1111122 
DISL,ioos:station:DISL:CATA:1,2013-06-04T22:30:00Z,30.3085,-88.1395,2.02,7.0,1111122 
DISL,ioos:station:DISL:CATA:1,2013-06-04T23:00:00Z,30.3085,-88.1395,2.031,6.99,1111122 
DISL,ioos:station:DISL:CATA:1,2013-06-04T23:30:00Z,30.3085,-88.1395,2.038,6.96,1111122 
DISL,ioos:station:DISL:CATA:1,2013-06-05T00:00:00Z,30.3085,-88.1395,2.053,6.94,1111122 
DISL,ioos:station:DISL:CATA:1,2013-06-05T00:30:00Z,30.3085,-88.1395,2.07,6.9,1111122 
DISL,ioos:station:DISL:CATA:1,2013-06-05T01:00:00Z,30.3085,-88.1395,2.068,6.85,1111122 
DISL,ioos:station:DISL:CATA:1,2013-06-05T01:30:00Z,30.3085,-88.1395,2.075,6.93,1111122 
DISL,ioos:station:DISL:CATA:1,2013-06-05T02:00:00Z,30.3085,-88.1395,2.084,6.89,1111122 
DISL,ioos:station:DISL:CATA:1,2013-06-05T02:30:00Z,30.3085,-88.1395,2.095,6.81,1111122 
DISL,ioos:station:DISL:CATA:1,2013-06-05T03:00:00Z,30.3085,-88.1395,2.106,6.79,1111122 
DISL,ioos:station:DISL:CATA:1,2013-06-05T03:30:00Z,30.3085,-88.1395,2.137,6.73,1111122 
DISL,ioos:station:DISL:CATA:1,2013-06-05T04:00:00Z,30.3085,-88.1395,2.169,6.66,1111122 
DISL,ioos:station:DISL:CATA:1,2013-06-05T04:30:00Z,30.3085,-88.1395,2.2,6.65,1111122 
DISL,ioos:station:DISL:CATA:1,2013-06-05T05:00:00Z,30.3085,-88.1395,2.208,6.54,1111122 
DISL,ioos:station:DISL:CATA:1,2013-06-05T05:30:00Z,30.3085,-88.1395,2.229,6.59,1111122 
DISL,ioos:station:DISL:CATA:1,2013-06-05T06:00:00Z,30.3085,-88.1395,2.255,6.57,1111122 
DISL,ioos:station:DISL:CATA:1,2013-06-05T06:30:00Z,30.3085,-88.1395,2.278,6.56,1111122 
DISL,ioos:station:DISL:CATA:1,2013-06-05T07:00:00Z,30.3085,-88.1395,2.299,6.56,1111122 
DISL,ioos:station:DISL:CATA:1,2013-06-05T07:30:00Z,30.3085,-88.1395,2.317,6.68,1111122 
DISL,ioos:station:DISL:CATA:1,2013-06-05T08:00:00Z,30.3085,-88.1395,2.327,6.69,1111122 
DISL,ioos:station:DISL:CATA:1,2013-06-05T08:30:00Z,30.3085,-88.1395,2.346,6.74,1111122 
DISL,ioos:station:DISL:CATA:1,2013-06-05T09:00:00Z,30.3085,-88.1395,2.369,6.75,1111122 
DISL,ioos:station:DISL:CATA:1,2013-06-05T09:30:00Z,30.3085,-88.1395,2.393,6.77,1111122 
DISL,ioos:station:DISL:CATA:1,2013-06-05T10:00:00Z,30.3085,-88.1395,2.416,6.79,1111122 
DISL,ioos:station:DISL:CATA:1,2013-06-05T10:30:00Z,30.3085,-88.1395,2.455,6.76,1111122 
DISL,ioos:station:DISL:CATA:1,2013-06-05T11:00:00Z,30.3085,-88.1395,2.466,6.76,1111122 
DISL,ioos:station:DISL:CATA:1,2013-06-05T11:30:00Z,30.3085,-88.1395,2.485,6.79,1111122 
DISL,ioos:station:DISL:CATA:1,2013-06-05T12:00:00Z,30.3085,-88.1395,2.499,6.84,1111122 
DISL,ioos:station:DISL:CATA:1,2013-06-05T12:30:00Z,30.3085,-88.1395,2.516,6.83,1111122 
DISL,ioos:station:DISL:CATA:1,2013-06-05T13:00:00Z,30.3085,-88.1395,2.499,6.9,1111122 
DISL,ioos:station:DISL:CATA:1,2013-06-05T13:30:00Z,30.3085,-88.1395,2.493,6.86,1111122 
DISL,ioos:station:DISL:CATA:1,2013-06-05T14:00:00Z,30.3085,-88.1395,2.488,6.85,1111122 
DISL,ioos:station:DISL:CATA:1,2013-06-05T14:30:00Z,30.3085,-88.1395,2.5,6.87,1111122 
DISL,ioos:station:DISL:CATA:1,2013-06-05T15:00:00Z,30.3085,-88.1395,2.481,6.87,1111122 
DISL,ioos:station:DISL:CATA:1,2013-06-05T15:30:00Z,30.3085,-88.1395,2.467,6.71,1111122 
DISL,ioos:station:DISL:CATA:1,2013-06-05T16:00:00Z,30.3085,-88.1395,2.452,6.59,1111122 
DISL,ioos:station:DISL:CATA:1,2013-06-05T16:30:00Z,30.3085,-88.1395,2.433,6.59,1111122 
DISL,ioos:station:DISL:CATA:1,2013-06-05T17:00:00Z,30.3085,-88.1395,2.403,6.45,1111122 
DISL,ioos:station:DISL:CATA:1,2013-06-05T17:30:00Z,30.3085,-88.1395,2.367,6.46,1111122 
DISL,ioos:station:DISL:CATA:1,2013-06-05T18:00:00Z,30.3085,-88.1395,2.347,6.46,1111122 
DISL,ioos:station:DISL:CATA:1,2013-06-05T18:30:00Z,30.3085,-88.1395,2.325,6.42,1111122 
DISL,ioos:station:DISL:CATA:1,2013-06-05T19:00:00Z,30.3085,-88.1395,2.277,6.48,1111122 
DISL,ioos:station:DISL:CATA:1,2013-06-05T19:30:00Z,30.3085,-88.1395,2.228,6.36,1111122 
DISL,ioos:station:DISL:CATA:1,2013-06-05T20:00:00Z,30.3085,-88.1395,2.177,6.27,1111122 
DISL,ioos:station:DISL:CATA:1,2013-06-05T20:30:00Z,30.3085,-88.1395,2.134,6.27,1111122 
DISL,ioos:station:DISL:CATA:1,2013-06-05T21:00:00Z,30.3085,-88.1395,2.098,6.38,1111122 
DISL,ioos:station:DISL:CATA:1,2013-06-05T21:30:00Z,30.3085,-88.1395,2.072,6.49,1111122 
DISL,ioos:station:DISL:CATA:1,2013-06-05T22:00:00Z,30.3085,-88.1395,2.061,6.48,1111122 
DISL,ioos:station:DISL:CATA:1,2013-06-05T22:30:00Z,30.3085,-88.1395,2.061,6.42,1111122 
DISL,ioos:station:DISL:CATA:1,2013-06-05T23:00:00Z,30.3085,-88.1395,2.073,6.5,1111122 
DISL,ioos:station:DISL:CATA:1,2013-06-05T23:30:00Z,30.3085,-88.1395,2.089,6.51,1111122 
DISL,ioos:station:DISL:CATA:1,2013-06-06T00:00:00Z,30.3085,-88.1395,2.1,6.53,1111122 
DISL,ioos:station:DISL:CATA:1,2013-06-06T00:30:00Z,30.3085,-88.1395,2.103,6.5,1111122 
DISL,ioos:station:DISL:CATA:1,2013-06-06T01:00:00Z,30.3085,-88.1395,2.103,6.41,1111122 
DISL,ioos:station:DISL:CATA:1,2013-06-06T01:30:00Z,30.3085,-88.1395,2.112,6.35,1111122 
DISL,ioos:station:DISL:CATA:1,2013-06-06T02:00:00Z,30.3085,-88.1395,2.135,6.31,1111122 
DISL,ioos:station:DISL:CATA:1,2013-06-06T02:30:00Z,30.3085,-88.1395,2.14,6.35,1111122 
DISL,ioos:station:DISL:CATA:1,2013-06-06T03:00:00Z,30.3085,-88.1395,2.138,6.42,1111122 
DISL,ioos:station:DISL:CATA:1,2013-06-06T03:30:00Z,30.3085,-88.1395,2.147,6.43,1111122 
DISL,ioos:station:DISL:CATA:1,2013-06-06T04:00:00Z,30.3085,-88.1395,2.179,6.44,1111122 
DISL,ioos:station:DISL:CATA:1,2013-06-06T04:30:00Z,30.3085,-88.1395,2.213,6.39,1111122 
DISL,ioos:station:DISL:CATA:1,2013-06-06T05:00:00Z,30.3085,-88.1395,2.264,6.35,1111122 
DISL,ioos:station:DISL:CATA:1,2013-06-06T05:30:00Z,30.3085,-88.1395,2.174,6.31,1111122 
DISL,ioos:station:DISL:CATA:1,2013-06-06T06:00:00Z,30.3085,-88.1395,2.136,6.28,1111122 
DISL,ioos:station:DISL:CATA:1,2013-06-06T06:30:00Z,30.3085,-88.1395,2.153,6.33,1111122 
DISL,ioos:station:DISL:CATA:1,2013-06-06T07:00:00Z,30.3085,-88.1395,2.207,6.32,1111122 
DISL,ioos:station:DISL:CATA:1,2013-06-06T07:30:00Z,30.3085,-88.1395,2.253,6.78,1111122 
DISL,ioos:station:DISL:CATA:1,2013-06-06T08:00:00Z,30.3085,-88.1395,2.297,7.58,1111122 
DISL,ioos:station:DISL:CATA:1,2013-06-06T08:30:00Z,30.3085,-88.1395,2.312,8.13,1111122 
DISL,ioos:station:DISL:CATA:1,2013-06-06T09:00:00Z,30.3085,-88.1395,2.363,7.83,1111122 
DISL,ioos:station:DISL:CATA:1,2013-06-06T09:30:00Z,30.3085,-88.1395,2.386,7.3,1111122 
DISL,ioos:station:DISL:CATA:1,2013-06-06T10:00:00Z,30.3085,-88.1395,2.437,6.96,1111122 
DISL,ioos:station:DISL:CATA:1,2013-06-06T10:30:00Z,30.3085,-88.1395,2.492,6.5,1111122 
DISL,ioos:station:DISL:CATA:1,2013-06-06T11:00:00Z,30.3085,-88.1395,2.502,6.45,1111122 
DISL,ioos:station:DISL:CATA:1,2013-06-06T11:30:00Z,30.3085,-88.1395,2.544,6.43,1111122 
DISL,ioos:station:DISL:CATA:1,2013-06-06T12:00:00Z,30.3085,-88.1395,2.555,6.42,1111122 
DISL,ioos:station:DISL:CATA:1,2013-06-06T12:30:00Z,30.3085,-88.1395,2.567,6.43,1111122 
DISL,ioos:station:DISL:CATA:1,2013-06-06T13:00:00Z,30.3085,-88.1395,2.601,6.46,1111122 
DISL,ioos:station:DISL:CATA:1,2013-06-06T13:30:00Z,30.3085,-88.1395,2.617,6.46,1111122 
DISL,ioos:station:DISL:CATA:1,2013-06-06T14:00:00Z,30.3085,-88.1395,2.611,9.06,1111122 
DISL,ioos:station:DISL:CATA:1,2013-06-06T14:30:00Z,30.3085,-88.1395,2.596,10.2,1111122 
DISL,ioos:station:DISL:CATA:1,2013-06-06T15:00:00Z,30.3085,-88.1395,2.597,10.98,1111122 
DISL,ioos:station:DISL:CATA:1,2013-06-06T15:30:00Z,30.3085,-88.1395,2.578,11.33,1111122 